• In Hungary
  • List of Countries
  • For 7 days
  • Water Temperature
  • Satellite Maps
  • Weather Map
  • News
  • Weather Widgets
  • user-avatar
    Login

    Hourly Weather Kaskinovo

    Today, 27 May, Sunday

    Time Temperature Precipitation Wind Pressure Humidity
    00:00 +2°C° 0 mm 3 mps 742 mmHg 64%
    01:00 +2°C° 0 mm 3 mps 742 mmHg 66%
    02:00 +1°C° 0 mm 3 mps 742 mmHg 67%
    03:00 +2°C° 0 mm 2 mps 743 mmHg 68%
    04:00 +1°C° 0 mm 2 mps 743 mmHg 68%
    05:00 +3°C° 0 mm 2 mps 743 mmHg 65%
    06:00 +4°C° 0 mm 3 mps 743 mmHg 62%
    07:00 +5°C° 0 mm 3 mps 744 mmHg 59%
    08:00 +8°C° 0 mm 3 mps 743 mmHg 55%
    09:00 +10°C° 0 mm 4 mps 743 mmHg 51%
    10:00 +12°C° 0 mm 5 mps 743 mmHg 48%
    11:00 +13°C° 0 mm 5 mps 743 mmHg 47%
    12:00 +14°C° 0 mm 5 mps 743 mmHg 47%
    13:00 +15°C° 0 mm 5 mps 743 mmHg 47%
    14:00 +15°C° 0 mm 5 mps 742 mmHg 48%
    15:00 +15°C° 0 mm 5 mps 742 mmHg 50%
    16:00 +16°C° 0 mm 5 mps 741 mmHg 51%
    17:00 +15°C° 0 mm 5 mps 741 mmHg 56%
    18:00 +14°C° 0 mm 4 mps 740 mmHg 62%
    19:00 +14°C° 0 mm 4 mps 740 mmHg 67%
    20:00 +12°C° 0 mm 4 mps 740 mmHg 70%
    21:00 +11°C° 0 mm 4 mps 739 mmHg 73%
    22:00 +8°C° 0 mm 4 mps 739 mmHg 77%
    23:00 +8°C° 0 mm 4 mps 738 mmHg 75%

    Tomorrow, 28 May, Monday

    Time Temperature Precipitation Wind Pressure Humidity
    00:00 +10°C° 0 mm 4 mps 738 mmHg 74%
    01:00 +9°C° 0 mm 5 mps 737 mmHg 72%
    02:00 +8°C° 0 mm 5 mps 736 mmHg 70%
    03:00 +8°C° 0 mm 6 mps 736 mmHg 69%
    04:00 +8°C° 0 mm 6 mps 735 mmHg 67%
    05:00 +9°C° 0 mm 7 mps 734 mmHg 68%
    06:00 +9°C° 0 mm 8 mps 733 mmHg 69%
    07:00 +10°C° 0 mm 9 mps 733 mmHg 70%
    08:00 +9°C° 1.6 mm 8 mps 732 mmHg 77%
    09:00 +7°C° 1.6 mm 8 mps 732 mmHg 84%
    10:00 +8°C° 1.6 mm 7 mps 732 mmHg 92%
    11:00 +9°C° 0.7 mm 7 mps 732 mmHg 87%
    12:00 +10°C° 0.7 mm 6 mps 732 mmHg 81%
    13:00 +12°C° 0.7 mm 5 mps 732 mmHg 76%
    14:00 +11°C° 0.4 mm 6 mps 732 mmHg 73%
    15:00 +11°C° 0.4 mm 6 mps 732 mmHg 70%
    16:00 +12°C° 0.4 mm 7 mps 733 mmHg 67%
    17:00 +11°C° 0.1 mm 6 mps 733 mmHg 70%
    18:00 +10°C° 0.1 mm 6 mps 733 mmHg 73%
    19:00 +9°C° 0.1 mm 5 mps 733 mmHg 77%
    20:00 +7°C° 0 mm 5 mps 734 mmHg 79%
    21:00 +6°C° 0 mm 5 mps 734 mmHg 82%
    22:00 +5°C° 0 mm 4 mps 734 mmHg 85%
    23:00 +4°C° 0 mm 4 mps 735 mmHg 85%

    Day after tomorrow, 29 May, Tuesday

    Time Temperature Precipitation Wind Pressure Humidity
    00:00 +3°C° 0 mm 4 mps 735 mmHg 85%
    01:00 +3°C° 0 mm 4 mps 735 mmHg 85%
    02:00 +1°C° 0 mm 4 mps 735 mmHg 85%
    03:00 +1°C° 0 mm 4 mps 735 mmHg 85%
    04:00 0°C° 0 mm 4 mps 736 mmHg 86%
    05:00 +1°C° 0 mm 4 mps 736 mmHg 81%
    06:00 +2°C° 0 mm 5 mps 736 mmHg 76%
    07:00 +3°C° 0 mm 6 mps 736 mmHg 71%
    08:00 +5°C° 0 mm 6 mps 736 mmHg 66%
    09:00 +7°C° 0 mm 6 mps 736 mmHg 60%
    10:00 +8°C° 0 mm 7 mps 736 mmHg 54%
    11:00 +8°C° 0.1 mm 7 mps 736 mmHg 54%
    12:00 +9°C° 0.1 mm 7 mps 736 mmHg 53%
    13:00 +9°C° 0.1 mm 6 mps 736 mmHg 52%
    14:00 +9°C° 0.1 mm 6 mps 735 mmHg 53%
    15:00 +9°C° 0.1 mm 6 mps 735 mmHg 54%
    16:00 +9°C° 0.1 mm 6 mps 735 mmHg 55%
    17:00 +8°C° 0.1 mm 5 mps 735 mmHg 59%
    18:00 +8°C° 0.1 mm 4 mps 735 mmHg 64%
    19:00 +8°C° 0.1 mm 3 mps 735 mmHg 69%
    20:00 +7°C° 0 mm 3 mps 735 mmHg 75%
    21:00 +5°C° 0 mm 2 mps 736 mmHg 82%
    22:00 +4°C° 0 mm 2 mps 736 mmHg 88%
    23:00 +4°C° 0 mm 2 mps 736 mmHg 90%

    30 May, Wednesday

    Time Temperature Precipitation Wind Pressure Humidity
    00:00 +4°C° 0 mm 1 mps 735 mmHg 91%
    01:00 +4°C° 0 mm 1 mps 735 mmHg 93%
    02:00 +4°C° 0 mm 1 mps 735 mmHg 93%
    03:00 +4°C° 0 mm 2 mps 735 mmHg 93%
    04:00 +4°C° 0 mm 2 mps 735 mmHg 94%
    05:00 +5°C° 0.1 mm 2 mps 735 mmHg 93%
    06:00 +6°C° 0.1 mm 2 mps 735 mmHg 93%
    07:00 +7°C° 0.1 mm 3 mps 735 mmHg 93%
    08:00 +8°C° 0 mm 3 mps 734 mmHg 89%
    09:00 +10°C° 0 mm 3 mps 734 mmHg 86%
    10:00 +11°C° 0 mm 3 mps 734 mmHg 82%
    11:00 +12°C° 0.1 mm 3 mps 734 mmHg 79%
    12:00 +13°C° 0.1 mm 3 mps 733 mmHg 76%
    13:00 +14°C° 0.1 mm 4 mps 733 mmHg 73%
    14:00 +15°C° 0.2 mm 4 mps 733 mmHg 74%
    15:00 +16°C° 0.2 mm 5 mps 732 mmHg 74%
    16:00 +16°C° 0.2 mm 6 mps 732 mmHg 74%
    17:00 +16°C° 0.3 mm 6 mps 731 mmHg 76%
    18:00 +16°C° 0.3 mm 5 mps 731 mmHg 78%
    19:00 +15°C° 0.3 mm 5 mps 730 mmHg 80%
    20:00 +14°C° 0 mm 5 mps 730 mmHg 81%
    21:00 +14°C° 0 mm 6 mps 730 mmHg 82%
    22:00 +13°C° 0 mm 6 mps 729 mmHg 83%
    23:00 +13°C° 0.1 mm 6 mps 729 mmHg 84%

    31 May, Thursday

    Time Temperature Precipitation Wind Pressure Humidity
    00:00 +11°C° 0.1 mm 7 mps 728 mmHg 84%
    01:00 +11°C° 0.1 mm 7 mps 728 mmHg 84%
    02:00 +11°C° 0.4 mm 7 mps 728 mmHg 86%
    03:00 +12°C° 0.4 mm 8 mps 727 mmHg 88%
    04:00 +12°C° 0.4 mm 8 mps 727 mmHg 90%
    05:00 +12°C° 0.2 mm 7 mps 727 mmHg 90%
    06:00 +12°C° 0.2 mm 7 mps 727 mmHg 91%
    07:00 +14°C° 0.2 mm 7 mps 728 mmHg 91%
    08:00 +14°C° 0.3 mm 7 mps 728 mmHg 91%
    09:00 +14°C° 0.3 mm 7 mps 728 mmHg 90%
    10:00 +15°C° 0.3 mm 7 mps 728 mmHg 90%
    11:00 +15°C° 0.5 mm 7 mps 728 mmHg 87%
    12:00 +16°C° 0.5 mm 7 mps 728 mmHg 83%
    13:00 +17°C° 0.5 mm 7 mps 728 mmHg 80%
    14:00 +16°C° 0.7 mm 6 mps 728 mmHg 84%
    15:00 +15°C° 0.7 mm 5 mps 728 mmHg 87%
    16:00 +14°C° 0.7 mm 4 mps 728 mmHg 91%
    17:00 +14°C° 1.2 mm 3 mps 728 mmHg 93%
    18:00 +15°C° 1.2 mm 2 mps 728 mmHg 94%
    19:00 +15°C° 1.2 mm 2 mps 728 mmHg 95%
    20:00 +14°C° 0.8 mm 2 mps 728 mmHg 95%
    21:00 +13°C° 0.8 mm 3 mps 728 mmHg 94%
    22:00 +13°C° 0.8 mm 4 mps 729 mmHg 94%
    23:00 +12°C° 0.5 mm 3 mps 729 mmHg 93%

    1 June, Friday

    Time Temperature Precipitation Wind Pressure Humidity
    00:00 +12°C° 0.5 mm 2 mps 729 mmHg 92%
    01:00 +11°C° 0.5 mm 1 mps 729 mmHg 91%
    02:00 +11°C° 0.2 mm 1 mps 729 mmHg 91%
    03:00 +10°C° 0.2 mm 1 mps 730 mmHg 91%
    04:00 +9°C° 0.2 mm 2 mps 730 mmHg 91%
    05:00 +9°C° 0.1 mm 2 mps 730 mmHg 90%
    06:00 +9°C° 0.1 mm 2 mps 731 mmHg 89%
    07:00 +9°C° 0.1 mm 2 mps 731 mmHg 88%
    08:00 +10°C° 0.1 mm 3 mps 731 mmHg 87%
    09:00 +10°C° 0.1 mm 3 mps 731 mmHg 85%
    10:00 +11°C° 0.1 mm 3 mps 731 mmHg 83%
    11:00 +11°C° 0.2 mm 3 mps 731 mmHg 84%
    12:00 +11°C° 0.2 mm 3 mps 731 mmHg 85%
    13:00 +11°C° 0.2 mm 3 mps 731 mmHg 86%
    14:00 +12°C° 0 mm 4 mps 731 mmHg 84%
    15:00 +13°C° 0 mm 4 mps 731 mmHg 81%
    16:00 +14°C° 0 mm 5 mps 731 mmHg 79%
    17:00 +14°C° 0 mm 5 mps 731 mmHg 79%
    18:00 +14°C° 0 mm 5 mps 730 mmHg 80%
    19:00 +14°C° 0 mm 4 mps 730 mmHg 80%
    20:00 +13°C° 0 mm 5 mps 730 mmHg 80%
    21:00 +12°C° 0 mm 5 mps 730 mmHg 80%
    22:00 +10°C° 0 mm 5 mps 730 mmHg 81%
    23:00 +10°C° 0 mm 5 mps 729 mmHg 80%
    Show more